Location: D.A.R.C. Observatory
(36.7133°N, 120.8553°W)
Time: 15:07:14
(UTC-07:00)

Daily predictions for brighter satellites

Satellite Brightness Start Highest point End
(mag) Time Altitude Azimuth Time Altitude Azimuth Time Altitude Azimuth
Cosmos 1726 Rocket 3.6 20:34:02 10° N 20:38:28 67° E 20:42:49 10° SSE
Cosmos 494 Rocket 4.0 20:33:27 10° SSW 20:38:33 85° ESE 20:43:41 10° NNE
Cosmos 1743 2.7 20:37:12 10° N 20:41:03 82° E 20:44:52 10° S
Atlas Centaur 2 3.3 20:35:35 10° SW 20:42:03 44° SSE 20:49:41 10° E
Cosmos 1939 Rocket 4.0 20:51:54 10° SE 20:55:29 29° ENE 20:59:04 10° NNE
Cosmos 1602 Rocket 4.1 20:52:39 10° SSE 20:56:50 41° E 21:01:03 10° NNE
Cosmos 2058 Rocket 3.0 20:53:23 10° N 20:57:46 85° E 21:02:07 10° S
Lacrosse 5 rocket 4.4 20:56:01 10° WNW 20:58:18 15° NNW 21:00:39 10° N
Cosmos 1603 3.7 20:54:17 10° S 20:59:47 60° ESE 21:05:17 10° NNE
Milstar 3 Cent rocket 3.9 20:52:04 10° W 20:59:57 30° SSW 21:04:51 10° SE
Meteor 1-23 Rocket 4.4 20:57:13 10° S 21:02:51 80° W 21:08:36 10° N
Tsikada Rocket 4.4 20:57:18 10° SSE 21:03:22 47° E 21:09:25 10° NNE
SeaSat 1 3.9 21:01:24 10° ESE 21:05:19 24° NE 21:09:15 10° N
Aureole 2 Rocket 3.3 21:01:39 10° SSW 21:05:33 58° WNW 21:09:06 10° N
Meteor 2-9 Rocket 4.3 21:00:49 10° N 21:06:33 77° E 21:12:23 10° SSE
SJ-11-01 4.3 21:04:02 10° SSE 21:08:38 65° ENE 21:13:16 10° N
YAOGAN 11 4.3 21:04:49 10° S 21:09:09 74° WSW 21:13:29 10° NNW
Cosmos 1812 Rocket 4.5 21:06:06 10° NNE 21:10:02 32° ENE 21:13:09 15° SE
FENGYUN 3A 4.1 21:05:25 10° S 21:10:43 63° WSW 21:16:04 10° NNW
COSMOS 2455 2.9 21:09:43 10° SSW 21:15:36 62° ESE 21:21:32 10° NE
Cosmos 2285 Rocket 4.3 21:10:04 10° NNW 21:16:21 70° WSW 21:22:39 10° S
deb Chang Zheng 4 3.6 21:12:09 10° NNE 21:16:33 89° E 21:20:54 10° SSW
Meteor 2-4 Rocket 4.5 21:11:08 10° SSW 21:16:54 60° W 21:22:47 10° N
H-2A R/B 4.0 21:13:26 10° S 21:17:11 42° W 21:20:59 10° NNW
GEOS 3 Rocket 3.7 21:12:22 11° SSE 21:17:23 82° SW 21:22:39 10° NW
CZ-4B R/B 4.5 21:13:29 10° NE 21:17:52 28° E 21:21:21 14° SSE
H-2A R/B 2.0 21:16:34 10° SSE 21:20:44 82° ENE 21:25:05 10° N
Cosmos 1302 Rocket 4.1 21:16:54 10° NNW 21:22:10 78° WSW 21:27:19 10° S
Cosmos 1943 3.7 21:17:05 10° S 21:22:12 36° ESE 21:27:22 10° NE
Cosmos 1464 Rocket 4.2 21:16:22 10° N 21:22:31 76° W 21:28:40 10° S
GRACE-1 4.2 21:21:27 10° NNE 21:24:15 47° E 21:25:44 23° SSE
GRACE-2 4.2 21:21:54 10° NNE 21:24:41 47° E 21:26:09 23° SSE
Abrixas rocket 3.0 21:21:50 10° WNW 21:25:07 44° SW 21:27:07 20° SSE
ISS -2.6 21:25:33 10° WSW 21:28:46 55° NW 21:31:59 10° NE
Cosmos 1626 Rocket 3.6 21:24:29 10° S 21:28:56 83° W 21:33:21 10° N
Delta 168 4.5 21:31:41 10° SW 21:33:59 16° S 21:34:05 16° S
Cosmos 2228 3.7 21:30:14 10° NNW 21:34:32 55° W 21:38:50 10° S
CZ-2C R/B 2.9 21:35:44 10° SSW 21:37:32 20° W 21:39:21 10° NW
ATLAS 3B R/B 3.1 21:30:27 10° S 21:37:48 51° ESE 21:45:05 10° NE
PSLV R/B 4.4 21:34:49 10° W 21:38:15 46° N 21:41:42 10° ENE
ERS-1 Rocket 3.7 21:37:40 10° S 21:42:31 50° W 21:47:24 10° NNW
Cosmos 2034 Rocket 4.3 21:36:13 10° N 21:42:33 71° W 21:48:48 10° S
Lacrosse 4 Rocket 1.9 21:42:36 27° SSE 21:43:56 35° ESE 21:47:40 10° NE
ALOS 4.5 21:42:25 10° SSW 21:46:03 22° W 21:49:42 10° NW
Meteor 2-12 Rocket 4.4 21:40:29 10° N 21:46:33 67° E 21:50:38 21° SSE
Cosmos 1953 Rocket 4.3 21:46:45 28° SE 21:48:02 34° E 21:52:01 10° NNE
CZ-4 R/B 4.5 21:45:01 10° NNE 21:49:40 38° E 21:51:36 28° SE
CZ-4 SHROUD 3.2 21:49:29 33° S 21:50:44 78° WSW 21:53:55 10° NNW
Envisat 3.0 21:48:46 19° S 21:52:29 80° WSW 21:57:35 10° NNW
SPOT 5 2.6 21:52:51 25° S 21:55:25 85° WSW 21:59:46 10° NNW
UNK 4.2 21:50:13 10° NNE 21:55:43 83° ESE 22:01:31 10° SSW
Cosmos 407 Rocket 3.8 21:53:14 24° SSE 21:55:58 45° ESE 22:00:57 10° NNE
USA 234 4.0 21:51:11 17° E 21:55:58 45° NE 22:02:08 10° NW
ARGOS 3.7 21:55:57 27° ESE 21:58:19 42° ENE 22:03:24 10° N
NAVSTAR 52 R/B(PAM-D 4.5 21:57:30 10° WNW 22:02:19 82° SSW 22:03:10 50° ESE
Cosmos 2346 Rocket 4.4 22:00:00 19° S 22:04:30 72° E 22:10:37 10° N
Terra 3.4 22:06:00 19° E 22:06:58 20° ENE 22:10:26 10° NNE
PSLV R/B 4.1 22:06:50 32° SW 22:07:45 42° W 22:10:44 10° NNW
Cosmos 2369 Rocket 2.4 22:02:38 10° NNW 22:08:14 58° ENE 22:10:29 35° SE
Cosmos 1461 4.5 22:04:53 10° NW 22:08:25 27° WSW 22:10:23 18° SSW
MetOp-B 4.1 22:08:42 28° S 22:11:35 82° WSW 22:16:58 10° NNW
Cosmos 1954 Rocket 4.5 22:15:22 38° ESE 22:16:02 39° ESE 22:20:57 10° NE
USA 238 DEB 4.2 22:16:02 32° SSE 22:18:02 38° ESE 22:24:28 10° NE
USA 238 4.2 22:16:15 32° SE 22:18:09 38° ESE 22:24:33 10° NE
NOAA 11 4.3 22:16:57 38° SE 22:18:50 60° ENE 22:24:10 10° N
CZ-4C R/B 3.9 22:19:34 42° E 22:19:59 44° ENE 22:23:53 10° N
Cosmos 1758 Rocket 3.5 22:21:04 54° SSE 22:21:54 69° E 22:26:15 10° NNE
USA 81 4.1 22:21:10 10° N 22:26:28 76° W 22:28:45 35° S
YAOGAN 6 2.9 22:26:09 54° SW 22:26:43 63° W 22:30:26 10° NNW
DELTA 2 DEB (DPAF) 4.3 22:27:30 52° ESE 22:28:07 57° ENE 22:32:32 10° N
Cosmos 1992 Rocket 4.3 22:26:11 10° NNW 22:31:19 60° WSW 22:33:11 37° SSW
Atlas Centaur 2 3.1 22:23:57 10° WSW 22:31:24 56° S 22:34:57 34° ESE
Cosmos 1900 4.5 22:28:55 13° SSW 22:33:31 79° WNW 22:38:41 10° NNE
BREEZE M DEB (TANK) 3.5 22:32:26 10° NW 22:33:25 24° NW 22:33:25 24° NW
Cosmos 2263 4.1 22:31:21 10° NNW 22:36:59 73° ENE 22:38:22 51° SE
COSMOS 2406 3.7 22:39:42 40° E 22:39:42 40° E 22:44:49 10° NE
Cosmos 1953 3.6 22:36:07 10° NNE 22:38:56 29° NE 22:38:56 29° NE
SeaSat 1 3.3 22:41:06 33° SSW 22:42:35 41° WSW 22:47:15 10° NW
Meteor 1-22 Rocket 4.4 22:42:00 10° NNW 22:47:36 70° W 22:49:28 44° SSW
Geosat 3.9 22:42:33 10° NNE 22:47:37 90° SW 22:49:09 46° SSW
H-2A R/B 2.0 22:47:47 56° E 22:48:14 59° ENE 22:53:11 10° N
Cosmos 1346 Rocket 4.2 22:52:42 28° WSW 22:53:47 33° WNW 22:57:22 10° N
SPOT 1/Viking Rocket 4.5 22:55:36 32° SW 22:57:12 41° W 23:02:04 10° NNW
Cosmos 1023 Rocket 4.4 23:01:55 69° E 23:01:55 69° E 23:07:07 10° NNE
Cosmos 1842 3.9 23:05:12 54° NW 23:05:12 54° NW 23:08:34 10° N
ISS 0.3 23:04:48 10° NW 23:05:48 11° NNW 23:06:47 10° N
Cosmos 1092 Rocket 4.3 23:07:03 49° ESE 23:07:25 49° E 23:13:26 10° NNE
Cosmos 1140 Rocket 3.3 23:08:25 80° ESE 23:08:25 80° ESE 23:13:40 10° NNE
Cosmos 1943 Rocket 2.0 23:03:14 10° NNW 23:08:47 73° ENE 23:09:12 69° ESE
IGS 5A 3.9 23:11:16 59° N 23:11:16 59° N 23:14:41 10° N
Spot 2 4.4 23:07:15 10° N 23:12:07 79° WNW 23:12:25 75° WSW
Nadezhda 4 Rocket 3.9 23:16:48 66° SSE 23:17:45 83° E 23:24:08 10° N
DMSP B5D2-2 4.2 23:14:56 10° N 23:20:12 72° WNW 23:20:47 65° WSW
Cosmos 2084 4.3 23:16:43 10° NNW 23:19:58 45° NNE 23:19:58 45° NNE
Cosmos 1656 Rocket 4.3 23:16:07 10° N 23:21:32 43° ENE 23:21:49 43° ENE
Lacrosse 4 Rocket 4.0 23:20:01 10° W 23:22:46 17° NW 23:25:33 10° N
Cosmos 1758 4.3 23:22:11 10° NNW 23:25:15 46° NNW 23:25:15 46° NNW
ATLAS 3B R/B 4.3 23:21:47 10° WSW 23:28:46 37° NW 23:35:38 10° NNE
Spot 4 4.3 23:35:22 56° WNW 23:35:22 56° WNW 23:39:34 10° NNW
Cosmos 614 Rocket 4.1 23:35:47 67° NNE 23:35:47 67° NNE 23:40:17 10° NNE
NOSS 3-2 (A) 4.0 23:37:25 44° ENE 23:37:25 44° ENE 23:42:19 10° NE
Cosmos 2221 4.4 23:32:44 10° NNE 23:34:57 22° NE 23:34:57 22° NE
USA 234 3.5 23:38:31 50° SW 23:38:51 50° SW 23:45:12 10° NW
Cosmos-2242 4.4 23:35:14 10° NNW 23:38:43 35° WNW 23:38:43 35° WNW
CZ-4C R/B 3.3 23:43:54 33° ENE 23:43:54 33° ENE 23:47:20 10° NE
Meteor 2-5 Rocket 3.9 23:42:23 67° ENE 23:42:23 67° ENE 23:47:44 10° NNE
Terra 2.9 23:44:53 36° W 23:44:53 36° W 23:48:51 10° NNW
CZ-4B R/B 4.4 23:51:36 13° NE 23:51:36 13° NE 23:52:23 10° NNE
Cosmos 2369 Rocket 4.2 23:48:16 10° WNW 23:51:39 16° W 23:52:17 16° WSW
